[[{"header":{"parameterUnit":"m.s-1","parameterCategory":1,"la1":30.2991,"la2":30.254,"lo1":-89.0895,"lo2":-89.0444,"dy":0.0017,"dx":0.0017,"nx":28,"ny":28,"refTime":"2024-03-01T09:00:00:Z","depth":0,"parameterNumber":2,"parameterNumberName":"U-component_of_WINDS"},"data":[0,0,0,0,0,0,0,0,0,0,0,0,0,0,0,0,0,0,0,0,0,0,0,0,0,0,0,0,0,0,0,0,0,0,0,0,0,0,0,0,0,0,0,0,0,0,0,0,0,0,0,0,0,0,0,0,0,0,-1.552,-1.552,0,-1.5531,-1.5531,-1.5531,-1.551,-1.5509,-1.5508,-1.5508,-1.5518,-1.5519,-1.552,0,0,0,0,0,0,0,0,0,0,0,0,0,-1.548,-1.5481,-1.552,-1.552,-1.552,-1.5531,-1.5531,-1.5531,-1.551,-1.5509,-1.5508,-1.5507,-1.5518,-1.5519,-1.552,0,0,0,0,0,0,0,0,0,0,0,0,0,-1.5495,-1.5481,-1.552,-1.5511,-1.551,-1.5531,-1.5531,-1.5531,-1.551,-1.5509,-1.5508,-1.5507,-1.5518,-1.5519,-1.5521,-1.5551,0,0,-1.5525,-1.5526,0,0,0,0,0,0,0,0,-1.5494,-1.5496,-1.5512,-1.5512,-1.5511,-1.5518,-1.5521,-1.5538,-1.551,-1.551,-1.5507,-1.5506,-1.5519,-1.552,-1.5525,-1.5551,-1.5552,-1.5525,-1.5526,-1.5527,-1.5527,0,0,0,0,0,0,0,-1.5493,-1.5496,-1.5524,-1.5512,-1.5512,-1.5506,-1.5507,-1.5524,-1.552,-1.551,-1.5508,-1.551,-1.5519,-1.5523,-1.5525,-1.5552,-1.5525,-1.5526,-1.5527,-1.5528,-1.5604,-1.5605,0,0,0,0,0,0,-1.5493,-1.5495,-1.5524,-1.5525,-1.55,-1.5508,-1.5509,-1.5517,-1.552,-1.552,-1.5511,-1.5509,-1.5521,-1.5523,-1.5525,-1.5561,-1.5527,-1.5528,-1.5529,-1.5603,-1.5604,-1.5605,0,0,0,0,0,0,-1.5493,-1.5496,-1.5524,-1.551,-1.5513,-1.5509,-1.5519,-1.5517,-1.5522,-1.5521,-1.552,-1.5517,-1.5521,-1.5523,-1.5545,-1.5561,-1.5529,-1.553,-1.5601,-1.5603,-1.5605,-1.5632,0,0,0,0,0,0,-1.5491,-1.5496,-1.5507,-1.551,-1.5513,-1.5543,-1.552,-1.5518,-1.5525,-1.5522,-1.5526,-1.5526,-1.552,-1.5543,-1.5546,-1.5562,-1.5531,-1.56,-1.5602,-1.5604,-1.563,-1.5635,-1.5639,0,0,0,0,0,-1.549,-1.5515,-1.5508,-1.5512,-1.5528,-1.5544,-1.5546,-1.5539,-1.5526,-1.5538,-1.5537,-1.5525,-1.5558,-1.5545,-1.5549,-1.5566,-1.5599,-1.5601,-1.5604,-1.5628,-1.5634,-1.5639,0,0,0,0,0,0,-1.5514,-1.5515,-1.5508,-1.5534,-1.5539,-1.554,-1.5555,-1.5546,-1.5555,-1.5552,-1.5543,-1.5544,-1.5567,-1.5568,-1.5553,-1.5595,-1.5576,-1.558,-1.5593,-1.5599,-1.5603,-1.5603,-1.5532,0,0,0,0,0,-1.5522,-1.5536,-1.5536,-1.5559,-1.5562,-1.5558,-1.5565,-1.5559,-1.5564,-1.5566,-1.5567,-1.5572,-1.5583,-1.5591,-1.5602,-1.563,-1.563,-1.5643,-1.5648,-1.5652,-1.5655,-1.567,-1.5676,-1.5614,-1.5614,-1.5614,0,0,-1.554,-1.5542,-1.5551,-1.5564,-1.5567,-1.5581,-1.556,-1.5575,-1.5585,-1.5568,-1.5589,-1.5589,-1.5595,-1.562,-1.5631,-1.5621,-1.5672,-1.5655,-1.5658,-1.5659,-1.5673,-1.5679,-1.5684,-1.5616,-1.5615,-1.5615,0,0,-1.5579,-1.5582,-1.5601,-1.5605,-1.561,-1.5608,-1.5612,-1.5615,-1.5615,-1.5635,-1.5623,-1.5635,-1.5655,-1.5659,-1.5664,-1.5704,-1.5694,-1.5708,-1.5732,-1.5746,-1.5751,-1.5756,-1.577,-1.5776,-1.5711,-1.5711,-1.5711,0,-1.56,-1.562,-1.5612,-1.5629,-1.5635,-1.562,-1.564,-1.5644,-1.5652,-1.5657,-1.5646,-1.5671,-1.5674,-1.57,-1.571,-1.5714,-1.5719,-1.5708,-1.5751,-1.5756,-1.5759,-1.5773,-1.5779,-1.5713,-1.5713,-1.5712,-1.5712,0,-1.5646,-1.566,-1.5675,-1.5684,-1.5692,-1.571,-1.5705,-1.5713,-1.5707,-1.5705,-1.5726,-1.5729,-1.574,-1.5745,-1.5739,-1.577,-1.5764,-1.5753,-1.5734,-1.5767,-1.578,-1.5785,-1.5715,-1.5715,-1.5714,-1.5714,0,0,-1.57,-1.5705,-1.571,-1.5714,-1.5719,-1.573,-1.5747,-1.5758,-1.5766,-1.5772,-1.5786,-1.5804,-1.5793,-1.5798,-1.5793,-1.5806,-1.5838,-1.5792,-1.5792,-1.5801,-1.5873,-1.5882,-1.5888,-1.5831,-1.5832,-1.5833,-1.5872,0,-1.5739,-1.5769,-1.5763,-1.5792,-1.5805,-1.5791,-1.5806,-1.5811,-1.581,-1.5821,-1.5819,-1.5832,-1.5817,-1.582,-1.5832,-1.5831,-1.5852,-1.5828,-1.5845,-1.5845,-1.5844,-1.5895,-1.5904,-1.5941,-1.5877,-1.5878,-1.5879,0,-1.5788,-1.5797,-1.5828,-1.583,-1.5836,-1.5849,-1.5859,-1.5869,-1.5874,-1.5872,-1.5879,-1.587,-1.5888,-1.5868,-1.5892,-1.5876,-1.5882,-1.5883,-1.5884,-1.5885,-1.5864,-1.5898,-1.5953,-1.5959,-1.5887,-1.5886,-1.5885,0,-1.5825,-1.5844,-1.5865,-1.5869,-1.5873,-1.5883,-1.5885,-1.5888,-1.5895,-1.5903,-1.5908,-1.5918,-1.5923,-1.5931,-1.5926,-1.5912,-1.595,-1.5931,-1.595,-1.595,-1.5958,-1.5958,-1.6016,-1.5962,-1.5962,-1.5962,-1.5962,0,-1.5869,-1.5889,-1.5882,-1.5895,-1.5916,-1.5909,-1.593,-1.593,-1.5934,-1.5947,-1.5935,-1.5947,-1.5939,-1.5951,-1.5946,-1.5967,-1.5969,-1.5968,-1.5967,-1.597,-1.597,-1.5974,-1.5971,-1.5963,-1.5963,-1.5963,-1.5962,0,-1.5915,-1.5911,-1.5933,-1.5934,-1.5935,-1.5951,-1.5952,-1.5964,-1.5962,-1.5979,-1.5982,-1.5979,-1.5992,-1.5987,-1.6001,-1.5998,-1.6024,-1.6019,-1.6023,-1.6021,-1.6041,-1.6039,-1.6103,-1.6111,-1.6052,-1.6053,-1.6053,0,-1.5943,-1.5958,-1.5961,-1.5969,-1.5972,-1.5984,-1.5991,-1.5984,-1.5992,-1.5999,-1.601,-1.6022,-1.6031,-1.6052,-1.6051,-1.6062,-1.6057,-1.6079,-1.6059,-1.6061,-1.6058,-1.6057,-1.6059,-1.6083,-1.6084,-1.6084,-1.6085,0,-1.5994,-1.5992,-1.6002,-1.6012,-1.6021,-1.6028,-1.6035,-1.6042,-1.6035,-1.6044,-1.6057,-1.6064,-1.6079,-1.6091,-1.61,-1.6102,-1.6093,-1.6091,-1.6096,-1.6099,-1.61,-1.61,-1.6034,-1.609,-1.6089,-1.6089,-1.6089,-1.6089,-1.6032,-1.6045,-1.6049,-1.6061,-1.6065,-1.6072,-1.6083,-1.6082,-1.6093,-1.6104,-1.6099,-1.6115,-1.6119,-1.6131,-1.6134,-1.6146,-1.6137,-1.6144,-1.6146,-1.6148,-1.6151,-1.6098,-1.6147,-1.6147,-1.6147,-1.6147,-1.6147,0,-1.6083,-1.6085,-1.6096,-1.6106,-1.6115,-1.6105,-1.6112,-1.6121,-1.6134,-1.6139,-1.6149,-1.6164,-1.6175,-1.6175,-1.6186,-1.6195,-1.6191,-1.6199,-1.6198,-1.6199,-1.6158,-1.6152,-1.6202,-1.6202,-1.6202,-1.6202,-1.6202,-1.6202,-1.6111,-1.6131,-1.6129,-1.6152,-1.6154,-1.6169,-1.6173,-1.6179,-1.6183,-1.62,-1.621,-1.621,-1.6213,-1.6223,-1.6234,-1.6233,-1.6238,-1.6247,-1.6245,-1.6207,-1.6201,-1.6196,-1.6191,-1.6248,-1.6248,-1.6285,-1.6285,-1.6285]},{"header":{"parameterUnit":"m.s-1","parameterCategory":1,"la1":30.2991,"la2":30.254,"lo1":-89.0895,"lo2":-89.0444,"dy":0.0017,"dx":0.0017,"nx":28,"ny":28,"refTime":"2024-03-01T09:00:00:Z","depth":0,"parameterNumber":3,"parameterNumberName":"V-component_of_WINDS"},"data":[0,0,0,0,0,0,0,0,0,0,0,0,0,0,0,0,0,0,0,0,0,0,0,0,0,0,0,0,0,0,0,0,0,0,0,0,0,0,0,0,0,0,0,0,0,0,0,0,0,0,0,0,0,0,0,0,0,0,-0.7833,-0.7833,0,-0.7836,-0.7836,-0.7836,-0.7821,-0.7821,-0.782,-0.782,-0.7822,-0.7822,-0.7823,0,0,0,0,0,0,0,0,0,0,0,0,0,-0.7813,-0.7814,-0.7833,-0.7833,-0.7833,-0.7836,-0.7836,-0.7836,-0.7821,-0.7821,-0.782,-0.782,-0.7822,-0.7822,-0.7823,0,0,0,0,0,0,0,0,0,0,0,0,0,-0.782,-0.7814,-0.7833,-0.7826,-0.7826,-0.7836,-0.7836,-0.7836,-0.7821,-0.7821,-0.782,-0.782,-0.7822,-0.7822,-0.7823,-0.784,0,0,-0.7825,-0.7825,0,0,0,0,0,0,0,0,-0.7819,-0.782,-0.7827,-0.7827,-0.7826,-0.7828,-0.783,-0.7837,-0.7822,-0.7823,-0.782,-0.7819,-0.7824,-0.7825,-0.7827,-0.784,-0.784,-0.7825,-0.7825,-0.7826,-0.7826,0,0,0,0,0,0,0,-0.7819,-0.782,-0.7834,-0.7827,-0.7827,-0.7822,-0.7823,-0.7831,-0.7827,-0.7823,-0.7822,-0.7822,-0.7824,-0.7826,-0.7827,-0.784,-0.7825,-0.7826,-0.7826,-0.7826,-0.7866,-0.7867,0,0,0,0,0,0,-0.782,-0.782,-0.7834,-0.7835,-0.7821,-0.7823,-0.7824,-0.7828,-0.7827,-0.7826,-0.7823,-0.7822,-0.7825,-0.7826,-0.7827,-0.7846,-0.7826,-0.7826,-0.7827,-0.7865,-0.7866,-0.7867,0,0,0,0,0,0,-0.7819,-0.7821,-0.7834,-0.7827,-0.7828,-0.7824,-0.7829,-0.7828,-0.783,-0.7827,-0.7826,-0.7826,-0.7825,-0.7826,-0.7836,-0.7846,-0.7827,-0.7827,-0.7865,-0.7866,-0.7867,-0.7885,0,0,0,0,0,0,-0.7819,-0.7821,-0.7828,-0.7827,-0.7829,-0.7845,-0.783,-0.7829,-0.7832,-0.783,-0.783,-0.7829,-0.7824,-0.7836,-0.7837,-0.7846,-0.7828,-0.7864,-0.7865,-0.7866,-0.7883,-0.7886,-0.7889,0,0,0,0,0,-0.7818,-0.7833,-0.7829,-0.783,-0.7838,-0.7845,-0.7846,-0.7841,-0.7833,-0.7839,-0.7837,-0.7829,-0.7844,-0.7837,-0.7838,-0.7848,-0.7863,-0.7865,-0.7866,-0.7882,-0.7886,-0.7889,0,0,0,0,0,0,-0.7835,-0.7833,-0.7828,-0.7843,-0.7845,-0.7843,-0.7851,-0.7845,-0.7848,-0.7847,-0.7839,-0.7839,-0.7851,-0.785,-0.7842,-0.7864,-0.7852,-0.7854,-0.7864,-0.7867,-0.787,-0.787,-0.7828,0,0,0,0,0,-0.7841,-0.7848,-0.7845,-0.7859,-0.786,-0.7855,-0.7859,-0.7854,-0.7855,-0.7856,-0.7854,-0.7855,-0.786,-0.7863,-0.7868,-0.7883,-0.7882,-0.789,-0.7893,-0.7895,-0.7897,-0.7904,-0.7907,-0.7872,-0.7872,-0.7872,0,0,-0.7853,-0.7852,-0.7857,-0.7863,-0.7863,-0.787,-0.7856,-0.7864,-0.7869,-0.7857,-0.7867,-0.7866,-0.7866,-0.7879,-0.7885,-0.7879,-0.7906,-0.7897,-0.7899,-0.7899,-0.7906,-0.7909,-0.7912,-0.7873,-0.7873,-0.7872,0,0,-0.7878,-0.7878,-0.7889,-0.789,-0.7891,-0.7887,-0.789,-0.7889,-0.7887,-0.7897,-0.7888,-0.7893,-0.7902,-0.7902,-0.7904,-0.7927,-0.792,-0.7928,-0.7943,-0.795,-0.7953,-0.7955,-0.7963,-0.7966,-0.793,-0.793,-0.793,0,-0.7892,-0.7903,-0.7896,-0.7904,-0.7907,-0.7895,-0.7906,-0.7907,-0.7909,-0.791,-0.7904,-0.7914,-0.7913,-0.7926,-0.7931,-0.7933,-0.7935,-0.7929,-0.7953,-0.7955,-0.7957,-0.7965,-0.7968,-0.7931,-0.7931,-0.7931,-0.7931,0,-0.792,-0.7927,-0.7936,-0.7938,-0.7941,-0.7951,-0.7945,-0.7949,-0.7943,-0.794,-0.795,-0.7948,-0.7952,-0.7954,-0.7949,-0.7966,-0.7962,-0.7954,-0.7943,-0.7962,-0.7969,-0.7972,-0.7933,-0.7932,-0.7932,-0.7932,0,0,-0.7958,-0.7955,-0.7958,-0.7959,-0.7958,-0.7963,-0.7971,-0.7975,-0.7978,-0.7979,-0.7985,-0.7992,-0.7985,-0.7986,-0.7981,-0.7987,-0.8005,-0.7978,-0.7978,-0.7983,-0.8022,-0.8028,-0.8032,-0.7999,-0.8,-0.8,-0.8022,0,-0.7982,-0.7997,-0.799,-0.8005,-0.8011,-0.8,-0.8007,-0.8007,-0.8004,-0.8008,-0.8004,-0.8009,-0.7999,-0.7999,-0.8005,-0.8001,-0.8012,-0.8,-0.8005,-0.8005,-0.8006,-0.8035,-0.8042,-0.8063,-0.8025,-0.8025,-0.8025,0,-0.8013,-0.8015,-0.8031,-0.8028,-0.803,-0.8037,-0.8039,-0.8043,-0.8042,-0.8039,-0.804,-0.8033,-0.804,-0.8028,-0.8037,-0.8029,-0.803,-0.8029,-0.8029,-0.803,-0.8017,-0.8037,-0.8069,-0.8072,-0.803,-0.8029,-0.8029,0,-0.8039,-0.8045,-0.8056,-0.8056,-0.8053,-0.8058,-0.8056,-0.8055,-0.8057,-0.8058,-0.8059,-0.8061,-0.8062,-0.8064,-0.8057,-0.8049,-0.8067,-0.8055,-0.8065,-0.8065,-0.807,-0.8069,-0.8103,-0.807,-0.807,-0.807,-0.807,0,-0.8067,-0.8077,-0.8067,-0.8073,-0.8084,-0.8075,-0.8086,-0.8083,-0.8081,-0.8086,-0.8076,-0.8081,-0.8071,-0.8075,-0.8069,-0.8078,-0.8078,-0.8076,-0.8074,-0.8077,-0.8077,-0.8078,-0.8077,-0.8071,-0.8071,-0.807,-0.807,0,-0.8098,-0.8092,-0.8102,-0.8097,-0.8096,-0.8104,-0.81,-0.8105,-0.8101,-0.8107,-0.8108,-0.8101,-0.8105,-0.8098,-0.81,-0.8096,-0.8108,-0.8104,-0.8109,-0.8108,-0.8118,-0.8117,-0.8153,-0.8157,-0.8122,-0.8122,-0.8123,0,-0.8117,-0.8124,-0.812,-0.8122,-0.8122,-0.8126,-0.8128,-0.8119,-0.8121,-0.812,-0.8125,-0.8127,-0.8129,-0.8135,-0.813,-0.8132,-0.8128,-0.814,-0.8128,-0.813,-0.8128,-0.8128,-0.8128,-0.8143,-0.8144,-0.8144,-0.8144,0,-0.815,-0.8146,-0.8149,-0.8151,-0.8153,-0.8154,-0.8154,-0.8157,-0.8147,-0.815,-0.8153,-0.8154,-0.8157,-0.8159,-0.8159,-0.8157,-0.8149,-0.8148,-0.815,-0.8153,-0.8156,-0.8154,-0.8116,-0.8147,-0.8147,-0.8147,-0.8147,-0.8146,-0.8176,-0.8181,-0.8179,-0.8182,-0.8181,-0.8181,-0.8185,-0.8181,-0.8184,-0.8185,-0.8179,-0.8184,-0.8181,-0.8181,-0.8179,-0.8182,-0.8176,-0.818,-0.8181,-0.8182,-0.8184,-0.8155,-0.8182,-0.8182,-0.8182,-0.8182,-0.8182,0,-0.8209,-0.8206,-0.8209,-0.8209,-0.8212,-0.8203,-0.8202,-0.8205,-0.8209,-0.8207,-0.8209,-0.8212,-0.8214,-0.8208,-0.8209,-0.8213,-0.8209,-0.8213,-0.8213,-0.8213,-0.8189,-0.8187,-0.8216,-0.8216,-0.8216,-0.8216,-0.8216,-0.8216,-0.8227,-0.8235,-0.8231,-0.8238,-0.8236,-0.824,-0.824,-0.824,-0.8238,-0.8242,-0.8244,-0.824,-0.8236,-0.8237,-0.8238,-0.8236,-0.8237,-0.8243,-0.824,-0.8218,-0.8214,-0.8211,-0.8209,-0.8243,-0.8243,-0.8263,-0.8263,-0.8264]}]]